Location: Bonac
(42.8765°N, 0.9753°E)
Time: 07:06:26
(UTC+00:00)

YAOGAN 1 - Pass Details

Date: 12 January 2026
Orbit: 605 x 607 km, 97.8° (Epoch: 10 February)

Event Time Altitude Azimuth Distance (km) Brightness Sun altitude
Rises 17:24:16 0° 132° (SE) 2,854 5.7 -7.5°
Reaches altitude 10° 17:26:47 10° 118° (ESE) 1,955 4.8 -7.9°
Maximum altitude 17:30:05 22° 67° (ENE) 1,326 3.6 -8.5°
Drops below altitude 10° 17:33:24 10° 16° (NNE) 1,966 4.8 -9.1°
Sets 17:35:56 0° 1° (N) 2,874 5.8 -9.5°
